TimeAST,TemperatureF,Dew PointF,Humidity,Sea Level PressureIn,VisibilityMPH,Wind Direction,Wind SpeedMPH,Gust SpeedMPH,PrecipitationIn,Events,Conditions,WindDirDegrees,DateUTC
12:00 AM,82.4,75.2,79,29.89,6.2,ESE,8.1,-,N/A,,Partly Cloudy,110,2012-10-30 04:00:00
1:00 AM,82.4,75.2,79,29.89,6.2,East,6.9,-,N/A,,Partly Cloudy,100,2012-10-30 05:00:00
2:00 AM,81,76,79,29.89,14,East,6.9,,,,Widespread Dust,90,2012-10-30 06:00:00
2:00 AM,80.6,75.2,84,29.89,6.2,East,6.9,-,N/A,,Partly Cloudy,90,2012-10-30 06:00:00
3:00 AM,80.6,75.2,84,29.86,6.2,East,6.9,-,N/A,,Partly Cloudy,100,2012-10-30 07:00:00
4:00 AM,80.6,75.2,84,29.86,6.2,East,5.8,-,N/A,,Partly Cloudy,100,2012-10-30 08:00:00
5:00 AM,80,75,81,29.89,12,East,5.8,,,,Widespread Dust,100,2012-10-30 09:00:00
6:00 AM,80.6,75.2,84,29.89,6.2,East,6.9,-,N/A,,Partly Cloudy,90,2012-10-30 10:00:00
7:00 AM,84.2,77.0,79,29.92,6.2,ESE,10.4,-,N/A,,Partly Cloudy,110,2012-10-30 11:00:00
8:00 AM,86,76,67,29.95,15,East,11.5,,,,Widespread Dust,100,2012-10-30 12:00:00
8:00 AM,86.0,77.0,74,29.95,6.2,East,11.5,-,N/A,,Partly Cloudy,100,2012-10-30 12:00:00
9:00 AM,87.8,77.0,70,29.98,6.2,ESE,15.0,-,N/A,,Partly Cloudy,120,2012-10-30 13:00:00
10:00 AM,87.8,78.8,75,29.98,6.2,SE,15.0,-,N/A,,Scattered Clouds,130,2012-10-30 14:00:00
11:00 AM,89.6,77.0,66,29.95,6.2,SE,15.0,-,N/A,,Partly Cloudy,130,2012-10-30 15:00:00
12:00 PM,87.8,77.0,70,29.92,6.2,ESE,17.3,-,N/A,,Scattered Clouds,120,2012-10-30 16:00:00
1:00 PM,87.8,77.0,70,29.89,6.2,SE,16.1,-,N/A,,Partly Cloudy,130,2012-10-30 17:00:00
2:00 PM,89,76,57,29.88,16,SE,13.8,,,,Scattered Clouds,140,2012-10-30 18:00:00
2:00 PM,89.6,75.2,62,29.86,6.2,SE,13.8,-,N/A,,Partly Cloudy,140,2012-10-30 18:00:00
3:00 PM,87.8,75.2,66,29.86,6.2,ESE,11.5,-,N/A,,Partly Cloudy,120,2012-10-30 19:00:00
4:00 PM,87.8,75.2,66,29.86,6.2,SE,11.5,-,N/A,,Partly Cloudy,130,2012-10-30 20:00:00
5:00 PM,85,74,64,29.88,19,ESE,11.5,,,,Scattered Clouds,110,2012-10-30 21:00:00
5:00 PM,86.0,75.2,70,29.86,6.2,ESE,11.5,-,N/A,,Partly Cloudy,110,2012-10-30 21:00:00
6:00 PM,82.4,75.2,79,29.89,6.2,East,9.2,-,N/A,,Partly Cloudy,90,2012-10-30 22:00:00
7:00 PM,80.6,75.2,84,29.89,6.2,Variable,3.5,-,N/A,,Partly Cloudy,0,2012-10-30 23:00:00
8:00 PM,,81,,,19,Calm,Calm,,,,,,2012-10-31 00:00:00
8:00 PM,80.6,75.2,84,29.92,6.2,Calm,Calm,-,N/A,,Partly Cloudy,0,2012-10-31 00:00:00
9:00 PM,80.6,75.2,84,29.92,6.2,Calm,Calm,-,N/A,,Partly Cloudy,0,2012-10-31 01:00:00
10:00 PM,80.6,75.2,84,29.92,6.2,Calm,Calm,-,N/A,,Partly Cloudy,0,2012-10-31 02:00:00
11:00 PM,,75,,29.93,19,NNE,70.2,,,,Scattered Clouds,20,2012-10-31 03:00:00
11:00 PM,78.8,75.2,89,29.92,6.2,Calm,Calm,-,N/A,,Partly Cloudy,0,2012-10-31 03:00:00